Notices

What's New in latest Release from April 7th, 2021:

- Updated Glossary, including Speed of Maximum Gust, and Total Hourly Precipitation

- Updated national and regional climate services offices contacts and prices information

- Addition of station inventory lists for 1981-2010, 1971-2000, and 1961-1990 Normals.

If you haven't already, please take our survey and provide feedback about our website: https://eccc.sondage-survey.ca/f/LanguageSelection.aspx?s=442ca660-fcf1-47c0-95a9-59707d6fd709

Hourly Data Report for October 13, 2019

CARBERRY CS
MANITOBA
Current Station Operator: ECCC - MSC

49°54'20.900" N
99°21'26.800" W
383.50 m
5010547
71170
WZE

Download Data

Hourly Data (October 2019)
Hourly Data Report for October 13, 2019
TIME
LST
Temp Definition
°C
Dew Point Definition
°C
Rel Hum Definition
%
Precip. Amount Definition
mm

Wind Dir Definition
10's deg

Wind Spd Definition
km/h
Visibility Definition
km
Stn Press Definition
kPa
Hmdx Definition


Wind Chill Definition


Weather Definition


00:00 0.0 0.0 100 0.0 31 18   96.00   -5 LegendNANA
01:00 0.0 0.0 100 0.0 31 14   96.02   -4 LegendNANA
02:00 -0.1 -0.1 100 0.0 31 12   96.06   -4 LegendNANA
03:00 0.0 0.0 100 0.0 31 12   96.08   -4 LegendNANA
04:00 0.0 0.0 100 0.0 31 15   96.11   -4 LegendNANA
05:00 -0.2 -0.2 100 0.0 31 18   96.15   -5 LegendNANA
06:00 -0.1 -0.1 100 0.0 31 14   96.19   -4 LegendNANA
07:00 -0.2 -0.2 100 0.0 31 12   96.25   -4 LegendNANA
08:00 0.1 0.0 100 0.0 31 10   96.29     LegendNANA
09:00 0.2 0.2 100 0.0 31 16   96.37     LegendNANA
10:00 0.6 0.6 100 0.0 32 17   96.43     LegendNANA
11:00 1.0 0.4 96 0.0 32 13   96.45     LegendNANA
12:00 1.8 -0.6 84 0.0 30 12   96.47     LegendNANA
13:00 2.4 -0.8 79 0.0 30 14   96.46     LegendNANA
14:00 2.7 -1.0 77 0.0 30 12   96.48     LegendNANA
15:00 2.8 -1.3 75 0.0 30 17   96.52     LegendNANA
16:00 1.8 -0.1 87 0.0 31 12   96.59     LegendNANA
17:00 1.0 1.0 100 0.0 31 10   96.56     LegendNANA
18:00 0.7 0.7 100 0.0 27 5   96.58     LegendNANA
19:00 0.9 0.8 100 0.0 25 5   96.59     LegendNANA
20:00 0.7 0.7 100 0.0 26 6   96.61     LegendNANA
21:00 0.6 0.5 100 0.0 26 2   96.60     LegendNANA
22:00 0.3 0.2 100 0.0 24 2   96.60     LegendNANA
23:00 -0.5 -0.6 100 0.0 12 3   96.60   -1 LegendNANA

Notes on Data Quality.

Legend

  • E = Estimated
  • M = Missing
  • NA = Not Available*
  • [empty] = Indicates an unobserved value
Date modified: